Powrót do katalogu

STARLINK-34226

AktywnyŁącznośćVLEO
NORAD 64494·PAYLOAD·🇺🇸 United States

Wystrzelony Jun 23, 2025 z Cape Canaveral Space Force Station

Loading…

Następne Przeloty (najbliższe 24 godziny)

TLE

ŚwieżeSource: CelesTrak SupGP

Epoka: Sep 14, 2026, 23:02 UTC

1 64494C 25133Y   26257.96020833  .00033690  00000+0  10834-2 0  2579
2 64494  53.1596 316.4184 0001205  85.8429 286.5864 15.31683128    17

Śledź STARLINK-34226 w czasie rzeczywistym z AllMySat

Download on the App Store